Location: Newark
(45.2500°N, 7.5833°E)
Time: 08:29:15
(UTC+00:00)

Courier 1B - Visible Passes

Search period start: 18 January 2020 00:00
Search period end: 28 January 2020 00:00
Orbit: 962 x 1209 km, 28.3° (Epoch: 17 January)

Date Brightness Start Highest point End Pass type
(mag) Time Alt. Az. Time Alt. Az. Time Alt. Az.
18 Jan 10.2 04:04:36 10° S 04:06:56 11° SSE 04:09:17 10° SE visible
18 Jan 9.9 05:54:29 10° SW 05:59:53 20° S 06:05:16 10° SE visible
19 Jan 9.9 05:01:16 10° SSW 05:06:15 18° SSE 05:11:17 10° SE visible
20 Jan 9.9 04:09:10 12° SSW 04:12:39 16° SSE 04:17:04 10° SE visible
20 Jan 9.8 06:00:03 10° SW 06:05:42 22° S 06:11:22 10° SE visible
21 Jan 10.0 03:18:59 13° SSE 03:19:05 13° SSE 03:22:27 10° SE visible
21 Jan 9.7 05:06:34 10° SW 05:12:03 21° S 05:17:35 10° SE visible
22 Jan 9.6 04:15:37 16° SSW 04:18:25 20° S 04:23:39 10° SE visible
22 Jan 9.7 06:06:00 10° SW 06:11:31 21° S 06:17:06 10° SE visible
23 Jan 9.7 03:25:19 17° SSE 03:25:19 17° SSE 03:29:32 10° SE visible
23 Jan 9.6 05:12:20 10° SW 05:17:52 22° S 05:23:31 10° SE visible
24 Jan 10.3 02:34:58 10° SE 02:34:58 10° SE 02:35:09 10° SE visible
24 Jan 9.4 04:21:52 18° SSW 04:24:14 21° S 04:29:46 10° SE visible
24 Jan 9.8 06:12:20 10° SW 06:17:20 19° SSW 06:22:24 10° SSE visible
25 Jan 9.5 03:31:29 20° SSE 03:31:29 20° SSE 03:35:53 10° SE visible
25 Jan 9.6 05:18:29 10° SW 05:23:42 20° S 05:29:02 10° SE visible
26 Jan 10.1 02:41:06 12° SE 02:41:06 12° SE 02:41:52 10° SE visible
26 Jan 9.4 04:27:59 19° SSW 04:30:05 21° S 04:35:30 10° SE visible
26 Jan 9.8 06:19:18 10° SW 06:23:07 14° SSW 06:26:58 10° SSE visible
27 Jan 9.5 03:37:35 20° SSE 03:37:35 20° SSE 03:41:50 10° SE visible
27 Jan 9.7 05:25:05 10° SW 05:29:31 17° SSW 05:34:02 10° SSE visible
